STARLINK-34577, 64719

Orbit data source: Space-Track

STARLINK-34577, 64719 is a payload satellite owned by SpaceX/Seattle (US) in LEO that was launched on Sat, 28 Jun 2025 UTC via an FALCON 9 launch vehicle from the Air Force Western Test Range (AFWTR). Payload-class satellites include a variety of spacecraft equipped with specific instruments for various scientific and technological missions. These include communications satellites like Starlink; space stations such as the ISS; scientific satellites like the Hubble; Earth observation satellites from companies like Planet Labs, Umbra, and HawkEye 360; GPS; miniature CubeSats for education and research; and military/defense satellites.

Not visible in the next 10 days
Identifier
64719, 2025-142Z
Orbit
LEO
Last TLE update
9 hours ago
Origin
Manufacturer
SpaceX/Seattle
Mission
Operational spacecraft
Bus & Motor
STARLINK V2MO, Unknown motor
Mass
575 kg wet, ~530 kg dry
Launch date (UTC)
2025-06-28 (1 week ago)
Launch vehicle
FALCON 9
Launch site
Air Force Western Test Range (AFWTR)
Object type
Payload
Rocket body
Debris
Shape & HBR
Unknown
Radar Cross Section
RCS unknown

Expand to show TLE details & history

TLE from 9 hours ago
0 STARLINK-34577
1 64719U 25142Z   25186.58335648 -.01481705  60852-3 -51283-2 0  9998
2 64719  69.9945 231.2930 0003986 277.6235  85.1987 15.89337591  2134
Epoch: 2025-07-05T14:00Z
TLE epoch observation values (Epoch: 2025-07-05T14:00:01.999Z)
Latitude
2.59828°
Longitude
98.40668°
Altitude
306.138 km
Speed
7.725 km/s
True Right ascension
15h 28m 56s
True Declination
2° 34' 54"
Sunlit
Object was in full shadow at epoch
Visualization orbit readout
Latitude
-54.4893°
Longitude
-53.0772°
Altitude
325.653 km
Speed
7.713 km/s
Apparent Right ascension
01h 23m 27s
Apparent Declination
-59° 54' 29"
Sunlit
Object is in daylight
Visualization observer readout
Local Sidereal Time
10:29:13
Azimuth
218.751° SW
Elevation
-56.498°
Doppler factor
1
Orbital elements
Apogee altitude
304.668 km
Perigee altitude
299.343 km
Semi-major axis
6,680.142 km
Eccentricity
0.0004
Inclination
69.9945°
RAAN
231.293°
Arg. of periapsis
277.6235°
True anomaly
Unknown
Mean anomaly
85.1987°
Eccentric anomaly
Unknown
Mean motion
3.97525 °/min
Orbital period
90.56 mins
BSTAR
-0.0051283
Loading maneuver chart data...
Loading SW <> Apogee altitude chart data...
Loading historical data...
Loading historical data...
Loading historical data...
Loading historical data...
Loading historical data...
Loading historical data...
Loading historical data...

STARLINK-34577 Visibility

Observer location: undefined°, undefined°

STARLINK-34577 is likely not visible in the next few days
Span
Click to sort rows by Start time (UTC) header in descending order
Start Az.
Max El. time (UTC)
Max El. Az.
Max El.
End time (UTC)
End Az.
|